| time (UTC) | temp F | wind direction | speed MPH | gust MPH | rain 1hr in | rain 24hr in | rain mn in | humidity % | barometer mb |
| 20260507234504 | 54 | 60 | 0.0 | 2.0 | 0.00 | 0.19 | 0.17 | 94 | 1010.1 |
| 20260507233005 | 55 | 66 | 0.0 | 2.0 | 0.00 | 0.19 | 0.17 | 94 | 1009.9 |
| 20260507231505 | 55 | 117 | 0.0 | 2.0 | 0.00 | 0.19 | 0.17 | 94 | 1009.7 |
| 20260507230004 | 55 | 0 | 0.0 | 0.0 | 0.00 | 0.19 | 0.17 | 94 | 1009.7 |
| 20260507224504 | 55 | 101 | 0.0 | 2.0 | 0.00 | 0.19 | 0.17 | 93 | 1010.1 |
| 20260507223004 | 55 | 103 | 0.0 | 2.0 | 0.00 | 0.19 | 0.17 | 93 | 1010.1 |
| 20260507221504 | 55 | 112 | 0.0 | 2.0 | 0.00 | 0.19 | 0.17 | 93 | 1010.0 |
| 20260507220004 | 55 | 131 | 0.0 | 2.0 | 0.00 | 0.19 | 0.17 | 92 | 1009.9 |
| 20260507214504 | 56 | 231 | 0.0 | 2.0 | 0.02 | 0.19 | 0.17 | 92 | 1009.6 |
| 20260507213004 | 56 | 0 | 0.0 | 0.0 | 0.02 | 0.19 | 0.17 | 92 | 1009.3 |
| 20260507211525 | 56 | 244 | 0.0 | 2.0 | 0.02 | 0.19 | 0.17 | 90 | 1009.4 |
| 20260507210004 | 56 | 0 | 0.0 | 0.0 | 0.02 | 0.19 | 0.17 | 91 | 1009.3 |
| 20260507204504 | 56 | 0 | 0.0 | 0.0 | 0.00 | 0.16 | 0.14 | 89 | 1009.3 |
| 20260507203004 | 56 | 71 | 0.0 | 2.0 | 0.00 | 0.16 | 0.14 | 89 | 1009.4 |
| 20260507201506 | 57 | 117 | 0.0 | 2.0 | 0.00 | 0.16 | 0.14 | 89 | 1009.9 |
| 20260507200031 | 57 | 74 | 0.0 | 2.0 | 0.00 | 0.16 | 0.14 | 89 | 1009.7 |
| 20260507194504 | 56 | 78 | 0.0 | 2.0 | 0.00 | 0.16 | 0.14 | 89 | 1009.7 |
| 20260507193004 | 56 | 63 | 0.0 | 4.0 | 0.00 | 0.16 | 0.14 | 89 | 1009.7 |
| 20260507191503 | 56 | 54 | 0.0 | 2.0 | 0.00 | 0.16 | 0.14 | 90 | 1009.8 |
| 20260507190005 | 56 | 326 | 0.0 | 5.0 | 0.00 | 0.16 | 0.14 | 88 | 1009.9 |
| 20260507184524 | 56 | 68 | 0.0 | 2.0 | 0.00 | 0.16 | 0.14 | 88 | 1009.8 |
| 20260507183003 | 56 | 327 | 0.0 | 4.0 | 0.00 | 0.16 | 0.14 | 87 | 1009.9 |
| 20260507181503 | 57 | 51 | 0.0 | 4.0 | 0.00 | 0.16 | 0.14 | 88 | 1009.8 |
| 20260507180004 | 57 | 71 | 0.0 | 4.0 | 0.00 | 0.16 | 0.14 | 88 | 1009.8 |
| 20260507174503 | 57 | 63 | 0.0 | 2.0 | 0.00 | 0.16 | 0.14 | 91 | 1009.6 |
| 20260507173004 | 56 | 68 | 0.0 | 2.0 | 0.00 | 0.18 | 0.14 | 90 | 1009.6 |
| 20260507171524 | 56 | 58 | 0.0 | 2.0 | 0.00 | 0.18 | 0.14 | 91 | 1009.8 |
| 20260507170003 | 56 | 72 | 0.0 | 7.0 | 0.00 | 0.18 | 0.14 | 90 | 1010.1 |
| 20260507164524 | 56 | 66 | 0.0 | 9.0 | 0.00 | 0.18 | 0.14 | 91 | 1010.1 |
| 20260507163003 | 56 | 71 | 0.0 | 4.0 | 0.00 | 0.18 | 0.14 | 92 | 1010.2 |
| 20260507161503 | 56 | 80 | 0.0 | 2.0 | 0.00 | 0.18 | 0.14 | 92 | 1010.6 |
| 20260507160004 | 56 | 52 | 0.0 | 2.0 | 0.00 | 0.18 | 0.14 | 94 | 1010.7 |
| 20260507154506 | 56 | 58 | 0.0 | 2.0 | 0.00 | 0.18 | 0.14 | 95 | 1011.0 |
| 20260507153006 | 56 | 80 | 0.0 | 4.0 | 0.00 | 0.18 | 0.14 | 95 | 1010.5 |
| 20260507151506 | 56 | 70 | 0.0 | 4.0 | 0.00 | 0.20 | 0.14 | 96 | 1010.2 |
| 20260507150006 | 56 | 82 | 0.0 | 4.0 | 0.00 | 0.23 | 0.14 | 97 | 1010.3 |
| 20260507144506 | 56 | 64 | 0.0 | 2.0 | 0.00 | 0.29 | 0.14 | 97 | 1010.0 |
| 20260507143006 | 55 | 71 | 0.0 | 4.0 | 0.00 | 0.32 | 0.14 | 97 | 1010.1 |
| 20260507141506 | 55 | 99 | 0.0 | 4.0 | 0.00 | 0.34 | 0.14 | 97 | 1010.3 |
| 20260507140006 | 55 | 69 | 0.0 | 4.0 | 0.00 | 0.35 | 0.14 | 97 | 1010.0 |
| 20260507134506 | 56 | 27 | 0.0 | 4.0 | 0.00 | 0.35 | 0.14 | 97 | 1010.5 |
| 20260507133027 | 56 | 65 | 2.0 | 5.0 | 0.00 | 0.35 | 0.14 | 96 | 1010.4 |
| 20260507131527 | 58 | 68 | 0.0 | 5.0 | 0.00 | 0.35 | 0.14 | 96 | 1010.8 |
| 20260507130006 | 60 | 52 | 0.0 | 5.0 | 0.00 | 0.35 | 0.14 | 97 | 1010.5 |
| 20260507124527 | 62 | 59 | 2.0 | 5.0 | 0.00 | 0.35 | 0.14 | 97 | 1009.3 |
| 20260507123006 | 64 | 0 | 0.0 | 0.0 | 0.02 | 0.35 | 0.14 | 98 | 1009.3 |
| 20260507121506 | 64 | 14 | 0.0 | 2.0 | 0.02 | 0.35 | 0.14 | 98 | 1009.2 |
| 20260507120006 | 64 | 0 | 0.0 | 0.0 | 0.02 | 0.35 | 0.14 | 98 | 1009.2 |
| 20260507114506 | 64 | 0 | 0.0 | 0.0 | 0.02 | 0.35 | 0.14 | 98 | 1009.1 |
| 20260507113006 | 63 | 0 | 0.0 | 0.0 | 0.00 | 0.33 | 0.12 | 98 | 1009.2 |
| 20260507111507 | 64 | 0 | 0.0 | 0.0 | 0.00 | 0.33 | 0.12 | 98 | 1009.3 |
| 20260507110006 | 63 | 0 | 0.0 | 0.0 | 0.00 | 0.33 | 0.12 | 98 | 1009.2 |
| 20260507104506 | 63 | 0 | 0.0 | 0.0 | 0.01 | 0.33 | 0.12 | 97 | 1008.9 |
| 20260507103006 | 63 | 360 | 0.0 | 2.0 | 0.02 | 0.33 | 0.12 | 97 | 1008.6 |
| 20260507101507 | 63 | 0 | 0.0 | 0.0 | 0.02 | 0.33 | 0.12 | 97 | 1008.4 |
| 20260507100006 | 64 | 0 | 0.0 | 0.0 | 0.02 | 0.33 | 0.12 | 97 | 1008.7 |
| 20260507094505 | 63 | 0 | 0.0 | 0.0 | 0.01 | 0.32 | 0.11 | 97 | 1008.2 |
| 20260507093005 | 64 | 0 | 0.0 | 0.0 | 0.01 | 0.31 | 0.10 | 97 | 1009.1 |
| 20260507091505 | 64 | 0 | 0.0 | 0.0 | 0.01 | 0.31 | 0.10 | 97 | 1008.8 |
| 20260507090006 | 64 | 0 | 0.0 | 0.0 | 0.01 | 0.31 | 0.10 | 97 | 1008.5 |
| 20260507084526 | 64 | 0 | 0.0 | 0.0 | 0.01 | 0.31 | 0.10 | 97 | 1009.3 |
| 20260507083005 | 64 | 0 | 0.0 | 0.0 | 0.00 | 0.30 | 0.09 | 97 | 1009.0 |
| 20260507081505 | 64 | 0 | 0.0 | 0.0 | 0.00 | 0.30 | 0.09 | 97 | 1008.9 |
| 20260507080005 | 64 | 0 | 0.0 | 0.0 | 0.00 | 0.30 | 0.09 | 97 | 1008.1 |
| 20260507074505 | 64 | 0 | 0.0 | 0.0 | 0.00 | 0.30 | 0.09 | 97 | 1008.2 |
| 20260507073005 | 64 | 0 | 0.0 | 0.0 | 0.00 | 0.30 | 0.09 | 97 | 1008.0 |
| 20260507071526 | 64 | 0 | 0.0 | 0.0 | 0.00 | 0.30 | 0.09 | 97 | 1008.1 |
| 20260507070009 | 64 | 138 | 0.0 | 2.0 | 0.00 | 0.30 | 0.09 | 97 | 1008.1 |
| 20260507064505 | 65 | 153 | 0.0 | 2.0 | 0.00 | 0.30 | 0.09 | 97 | 1008.2 |
| 20260507063026 | 65 | 64 | 0.0 | 2.0 | 0.00 | 0.30 | 0.09 | 97 | 1008.8 |
| 20260507061505 | 65 | 303 | 0.0 | 4.0 | 0.00 | 0.30 | 0.09 | 97 | 1009.1 |
| 20260507060005 | 65 | 286 | 0.0 | 2.0 | 0.00 | 0.30 | 0.09 | 97 | 1009.1 |
| 20260507054505 | 64 | 286 | 0.0 | 2.0 | 0.00 | 0.30 | 0.09 | 97 | 1009.4 |
| 20260507053026 | 64 | 0 | 0.0 | 0.0 | 0.00 | 0.30 | 0.09 | 97 | 1009.7 |
| 20260507051505 | 64 | 0 | 0.0 | 0.0 | 0.03 | 0.30 | 0.09 | 96 | 1009.2 |
| 20260507050005 | 65 | 0 | 0.0 | 0.0 | 0.09 | 0.30 | 0.09 | 96 | 1009.4 |
| 20260507044505 | 65 | 77 | 0.0 | 2.0 | 0.11 | 0.30 | 0.09 | 96 | 1009.9 |
| 20260507043005 | 65 | 0 | 0.0 | 0.0 | 0.11 | 0.30 | 0.09 | 95 | 1009.8 |
| 20260507041526 | 65 | 0 | 0.0 | 0.0 | 0.08 | 0.26 | 0.06 | 95 | 1010.7 |
| 20260507034505 | 67 | 284 | 0.0 | 2.0 | 0.00 | 0.19 | 0.19 | 91 | 1010.9 |
| 20260507033005 | 67 | 13 | 0.0 | 2.0 | 0.00 | 0.19 | 0.19 | 90 | 1010.4 |
| 20260507031504 | 67 | 0 | 0.0 | 0.0 | 0.00 | 0.19 | 0.19 | 90 | 1009.8 |
| 20260507030004 | 67 | 0 | 0.0 | 0.0 | 0.00 | 0.19 | 0.19 | 89 | 1009.7 |
| 20260507024505 | 67 | 0 | 0.0 | 0.0 | 0.00 | 0.19 | 0.19 | 89 | 1009.8 |
| 20260507023005 | 66 | 0 | 0.0 | 0.0 | 0.00 | 0.19 | 0.19 | 89 | 1009.6 |
| 20260507021504 | 66 | 333 | 0.0 | 2.0 | 0.00 | 0.19 | 0.19 | 89 | 1009.4 |
| 20260507020025 | 67 | 0 | 0.0 | 0.0 | 0.00 | 0.19 | 0.19 | 89 | 1009.4 |
| 20260507014504 | 67 | 334 | 0.0 | 2.0 | 0.00 | 0.19 | 0.19 | 88 | 1009.0 |
| 20260507013004 | 67 | 0 | 0.0 | 0.0 | 0.00 | 0.19 | 0.19 | 88 | 1009.1 |
| 20260507011504 | 68 | 0 | 0.0 | 0.0 | 0.00 | 0.19 | 0.19 | 88 | 1009.4 |
| 20260507010025 | 68 | 109 | 0.0 | 2.0 | 0.00 | 0.19 | 0.19 | 88 | 1009.3 |
| 20260507004504 | 68 | 102 | 0.0 | 2.0 | 0.00 | 0.19 | 0.19 | 88 | 1009.1 |
| 20260507003004 | 68 | 0 | 0.0 | 0.0 | 0.00 | 0.19 | 0.19 | 88 | 1009.0 |
| 20260507001504 | 68 | 0 | 0.0 | 0.0 | 0.00 | 0.19 | 0.19 | 87 | 1008.9 |
| 20260507000004 | 69 | 103 | 0.0 | 2.0 | 0.00 | 0.19 | 0.19 | 86 | 1008.9 |